User: anonymous   Login
Location: Newark
(21.1200°N, 73.4000°E)
Time: 00:18:30
(UTC+00:00)
Language:

Explorer 11/Cluster Stage 4 - Orbit

View from above orbital plane
View from above orbital plane
View from above satellite
View from above satellite

Ground track
Ground track

The orbit data is extracted from the following two-line orbital elements,

1 00107U 61013A   21016.47677004  .00000625  00000-0  61381-4 0  9990
2 00107  28.7924  58.2529 0545965 247.6980 106.4842 14.09091185996291
Epoch (UTC): 16 January 2021 11:26:32
Eccentricity: 0.0545965
inclination: 28.7924°
perigee height: 467 km
apogee height: 1258 km
right ascension of ascending node: 58.2529°
argument of perigee: 247.6980°
revolutions per day: 14.09091185
mean anomaly at epoch: 106.4842°
orbit number at epoch: 99629

The dashed part of the orbit path shows where the satellite is in the earth's shadow,  

DLR